Location: Red Deer
(52.2681°N, 113.8112°W)
Time: 00:10:32
(UTC-06:00)

QB50P2 - Pass Details

Date: 31 May 2022
Orbit: 589 x 607 km, 97.9° (Epoch: 27 June)

Event Time Altitude Azimuth Distance (km) Brightness Sun altitude
Rises 03:03:50 0° 15° (NNE) 2,836 ? -13.2°
Reaches altitude 10° 03:06:01 10° 17° (NNE) 1,929 ? -13.1°
Maximum altitude 03:10:12 77° 103° (ESE) 611 ? -12.8°
Enters shadow 03:13:11 19° 189° (S) 1,439 ? -12.6°
